Location: Eaton
(41.3139°N, 82.0207°W)
Time: 12:51:01
(UTC+00:00)

Chandra Rocket (1) - Pass Details

Date: 17 June 2021
Orbit: 357 x 10987 km, 28.4° (Epoch: 26 July)

Event Time Altitude Azimuth Distance (km) Brightness Sun altitude
Exits shadow 09:13:08 - 224° (SW) 3,897 5.4 -7.1°
Reaches altitude 10° 09:14:37 10° 217° (SW) 3,334 5.1 -6.9°
Maximum altitude 09:18:23 14° 186° (S) 2,172 4.4 -6.3°
Drops below altitude 10° 09:20:50 10° 151° (SSE) 1,981 4.6 -6.0°
Sets 09:23:17 0° 122° (ESE) 2,461 5.4 -5.6°
